Tracking 19800 objects as of 23-Jul-2019
HD Live streaming from Space Station
objects crossing your sky now

INTELSAT 10 (PAS 10)

Track INTELSAT 10 (PAS 10) now!
INTELSAT 10 (PAS 10) is classified as:


NORAD ID: 26766
Int'l Code: 2001-019A
Perigee: 35,779.9 km
Apogee: 35,806.3 km
Inclination: 3.2 °
Period: 1,436.1 minutes
Semi major axis: 42164 km
RCS: 12.6191 m2 (large)
Launch date: May 15, 2001
Source: United States (US)
Launch site: TYURATAM MISSILE AND SPACE COMPLEX (TTMTR)

Direct-to-home video channels; 24 C-band, 24 Ku-band; Asia, Africa, Middle East, Europe.
aabbcc
Your satellite tracking list
Your tracking list is empty




NASA's NSSDC Master Catalog

Two Line Element Set (TLE):
1 26766U 01019A   19203.81646559  .00000123  00000-0  00000+0 0  9992
2 26766   3.1521  81.1370 0003133  18.7150 181.8320  1.00274213 66648
Source of the keplerian elements: AFSPC